TimePST,TemperatureF,Dew PointF,Humidity,Sea Level PressureIn,VisibilityMPH,Wind Direction,Wind SpeedMPH,Gust SpeedMPH,PrecipitationIn,Events,Conditions,WindDirDegrees,DateUTC
12:15 AM,46.4,41.0,81,30.32,10.0,Calm,Calm,-,N/A,,Clear,0,2013-01-30 08:15:00
12:55 AM,44.6,41.0,87,30.31,10.0,Calm,Calm,-,N/A,,Clear,0,2013-01-30 08:55:00
1:15 AM,44.6,41.0,87,30.31,10.0,Calm,Calm,-,N/A,,Clear,0,2013-01-30 09:15:00
1:35 AM,44.6,41.0,87,30.31,10.0,Calm,Calm,-,N/A,,Clear,0,2013-01-30 09:35:00
1:55 AM,44.6,41.0,87,30.31,10.0,Calm,Calm,-,N/A,,Clear,0,2013-01-30 09:55:00
2:15 AM,44.6,39.2,81,30.31,10.0,Calm,Calm,-,N/A,,Clear,0,2013-01-30 10:15:00
2:35 AM,44.6,39.2,81,30.31,10.0,West,3.5,-,N/A,,Clear,260,2013-01-30 10:35:00
2:55 AM,44.6,41.0,87,30.30,10.0,Calm,Calm,-,N/A,,Clear,0,2013-01-30 10:55:00
3:15 AM,44.6,39.2,81,30.30,10.0,Calm,Calm,-,N/A,,Clear,0,2013-01-30 11:15:00
3:35 AM,42.8,39.2,87,30.30,10.0,SSE,3.5,-,N/A,,Clear,150,2013-01-30 11:35:00
3:55 AM,42.8,39.2,87,30.30,10.0,SSE,4.6,-,N/A,,Clear,150,2013-01-30 11:55:00
4:15 AM,42.8,39.2,87,30.30,10.0,Calm,Calm,-,N/A,,Clear,0,2013-01-30 12:15:00
4:35 AM,42.8,39.2,87,30.30,10.0,Calm,Calm,-,N/A,,Clear,0,2013-01-30 12:35:00
4:55 AM,41.0,39.2,93,30.29,10.0,Calm,Calm,-,N/A,,Clear,0,2013-01-30 12:55:00
5:15 AM,42.8,39.2,87,30.29,10.0,Calm,Calm,-,N/A,,Clear,0,2013-01-30 13:15:00
5:35 AM,42.8,39.2,87,30.30,10.0,SSE,3.5,-,N/A,,Clear,150,2013-01-30 13:35:00
5:55 AM,41.0,39.2,93,30.30,10.0,West,3.5,-,N/A,,Clear,260,2013-01-30 13:55:00
6:15 AM,42.8,39.2,87,30.31,10.0,Calm,Calm,-,N/A,,Clear,0,2013-01-30 14:15:00
6:35 AM,42.8,39.2,87,30.31,10.0,Calm,Calm,-,N/A,,Clear,0,2013-01-30 14:35:00
6:51 AM,42.8,39.2,87,30.31,30.0,Calm,Calm,-,N/A,,Partly Cloudy,0,2013-01-30 14:51:00
6:55 AM,42.8,39.2,87,30.31,10.0,Calm,Calm,-,N/A,,Clear,0,2013-01-30 14:55:00
7:47 AM,44.6,39.2,81,30.34,30.0,Calm,Calm,-,N/A,,Partly Cloudy,0,2013-01-30 15:47:00
8:53 AM,48.2,42.8,82,30.34,30.0,Calm,Calm,-,N/A,,Partly Cloudy,0,2013-01-30 16:53:00
9:49 AM,53.6,46.4,77,30.35,30.0,Calm,Calm,-,N/A,,Partly Cloudy,0,2013-01-30 17:49:00
10:47 AM,59.0,41.0,51,30.36,30.0,East,4.6,-,N/A,,Partly Cloudy,90,2013-01-30 18:47:00
11:53 AM,62.6,41.0,45,30.33,30.0,East,6.9,-,N/A,,Clear,80,2013-01-30 19:53:00
12:47 PM,62.6,41.0,45,30.31,30.0,ENE,3.5,-,N/A,,Clear,70,2013-01-30 20:47:00
1:52 PM,64.4,41.0,42,30.28,30.0,Calm,Calm,-,N/A,,Partly Cloudy,0,2013-01-30 21:52:00
2:48 PM,64.4,39.2,40,30.28,30.0,NE,4.6,-,N/A,,Partly Cloudy,40,2013-01-30 22:48:00
3:49 PM,60.8,42.8,52,30.28,30.0,NNE,6.9,-,N/A,,Clear,20,2013-01-30 23:49:00
4:50 PM,59.0,48.2,67,30.27,30.0,NNE,4.6,-,N/A,,Clear,20,2013-01-31 00:50:00
5:47 PM,59.0,41.0,51,30.27,30.0,NW,4.6,-,N/A,,Clear,320,2013-01-31 01:47:00
6:47 PM,55.4,46.4,72,30.28,10.0,Calm,Calm,-,N/A,,Clear,0,2013-01-31 02:47:00
7:47 PM,53.6,46.4,77,30.28,10.0,Calm,Calm,-,N/A,,Clear,0,2013-01-31 03:47:00
8:47 PM,50.0,42.8,76,30.29,10.0,SSW,3.5,-,N/A,,Clear,210,2013-01-31 04:47:00